Content
SEND FEEDBACK

Daily
Averages
Monthly
Summary
United States of America

AGAT, GUAM


Home > North America > United States > Guam
Elevation: 110 meters     Latitude: 13 33N     Longitude: 144 50E

WEATHER
 
SELECT A DAY
Number of Records: 208,997;   Date Range: 1/1/95 - 7/26/14
 
SHARE

PRINT THIS DATA

[ ← Previous Day ]
WEATHER ALMANAC - 10 JANUARY, 2013
[ Next Day → ]
[ °F ]   °C
Weather ElementAverageHighLow
Temperature26.1 °C28.3 °C (12:54 pm)24 °C (8:47 am)
Dewpoint23.9 °C26 °C (1:07 pm)22.2 °C (1:54 am)
Humidity88.2 %100 % (8:47 am)79 % (12:09 pm)
Barometer1010.2 hPa1011.9 hPa (8:47 am)1007.8 hPa (2:54 pm)
Wind Speed18.7 km/h31.5 km/h (10:44 am)
Wind Gust50.1 km/h (1:07 pm)
Weather ElementAverage
Visibility13.7 km
Wind DirectionE (87.3 °)

Weather ElementTotal
Precipitation7.11 mm
Cooling Degree Days7.8 (Base 18.3)
Growing Degree Days16.2 (Base 10)
Averaged from 40 records on 10 January, 2013
WEATHER CONDITIONS BREAKOUT
WIND DIRECTION BREAKOUT
WEATHER BY HOUR - 10 JANUARY, 2013
[ °F ]   °C
Local TimeTemperatureDewpointHumidityBarometerVisibilityWind DirectionWind SpeedGust SpeedPrecipitationEventsConditions
1:54 AM25 °C22.2 °C84 %1009.5 hPa16.1 kmEast (80°)11.1 km/h0 mmScattered Clouds
2:54 AM24.4 °C22.2 °C87 %1008.8 hPa16.1 kmEast (80°)9.3 km/hPartly Cloudy
3:54 AM24.4 °C22.2 °C87 %1008.5 hPa16.1 kmENE (70°)9.3 km/hPartly Cloudy
4:54 AM24.4 °C22.2 °C87 %1008.5 hPa16.1 kmENE (70°)7.4 km/hClear
5:54 AM25 °C23.3 °C90 %1009.1 hPa14.5 kmENE (70°)9.3 km/h0 mmRainLight Rain
6:54 AM24.4 °C23.3 °C94 %1009.8 hPa16.1 kmENE (70°)11.1 km/h0 mmClear
7:54 AM25.6 °C23.9 °C90 %1010.2 hPa16.1 kmEast (80°)9.3 km/hScattered Clouds
8:38 AM25 °C24 °C94 %1011.5 hPa14.5 kmEast (80°)29.6 km/h38.9 km/hOvercast
8:47 AM24 °C24 °C100 %1011.9 hPa2.9 kmEast (80°)20.4 km/h40.7 km/h0 mmRainRain
8:54 AM24.4 °C23.9 °C97 %1010.8 hPa4 kmEast (80°)14.8 km/h0.25 mmRainLight Rain
8:58 AM24 °C24 °C100 %1011.5 hPa4.8 kmEast (80°)14.8 km/h0 mmRainLight Rain
9:54 AM25.6 °C23.9 °C90 %1010.8 hPa4.8 kmEast (90°)20.4 km/h31.5 km/hRainLight Rain
10:01 AM26 °C24 °C89 %1011.5 hPa9.7 kmEast (80°)13 km/h0 mmRainLight Rain
10:15 AM26 °C24 °C89 %1011.2 hPa16.1 kmEast (90°)16.7 km/h0 mmOvercast
10:22 AM26 °C24 °C89 %1011.2 hPa16.1 kmEast (90°)16.7 km/h0 mmOvercast
10:44 AM26 °C25 °C94 %1011.2 hPa3.2 kmEast (90°)31.5 km/h38.9 km/h1.52 mmRainLight Rain
10:54 AM25.6 °C25 °C96 %1010.2 hPa4.8 kmEast (90°)24.1 km/h1.78 mmRainRain
11:10 AM26 °C25 °C94 %1010.8 hPa14.5 kmEast (90°)14.8 km/h31.5 km/h0 mmRainLight Rain
11:54 AM27.2 °C24.4 °C85 %1009.5 hPa16.1 kmEast (100°)22.2 km/h0 mmOvercast
12:09 PM28 °C24 °C79 %1010.2 hPa16.1 kmESE (110°)24.1 km/h35.2 km/hOvercast
12:52 PM28 °C25 °C84 %1009.8 hPa16.1 kmEast (90°)22.2 km/h37 km/hOvercast
12:54 PM28.3 °C25 °C82 %1008.8 hPa16.1 kmEast (90°)25.9 km/h37 km/hOvercast
1:07 PM28 °C26 °C89 %1009.5 hPa8 kmEast (100°)31.5 km/h50.1 km/h0 mmRainLight Rain
1:52 PM26 °C24 °C89 %1009.5 hPa14.5 kmESE (110°)20.4 km/h37 km/h1.02 mmRainLight Rain
1:54 PM25.6 °C23.9 °C90 %1008.8 hPa14.5 kmESE (110°)18.5 km/h1.02 mmRainLight Rain
2:54 PM27.8 °C24.4 °C82 %1007.8 hPa16.1 kmEast (80°)24.1 km/h40.7 km/h0 mmScattered Clouds
3:54 PM26.7 °C23.9 °C85 %1008.1 hPa16.1 kmEast (90°)20.4 km/hMostly Cloudy
4:54 PM27.2 °C24.4 °C85 %1008.8 hPa16.1 kmEast (100°)18.5 km/h29.6 km/hClear
5:54 PM27.2 °C23.3 °C79 %1009.1 hPa16.1 kmEast (90°)18.5 km/hScattered Clouds
6:03 PM27 °C24 °C84 %1009.8 hPa16.1 kmEast (80°)20.4 km/hMostly Cloudy
6:26 PM27 °C24 °C84 %1009.8 hPa16.1 kmEast (80°)22.2 km/hMostly Cloudy
6:54 PM26.7 °C23.9 °C85 %1009.5 hPa16.1 kmEast (80°)22.2 km/hPartly Cloudy
7:54 PM26.1 °C24.4 °C90 %1009.8 hPa16.1 kmEast (80°)18.5 km/h0.51 mmPartly Cloudy
8:50 PM26 °C24 °C89 %1010.8 hPa16.1 kmEast (90°)16.7 km/hMostly Cloudy
8:54 PM26.7 °C23.9 °C85 %1010.2 hPa16.1 kmEast (90°)16.7 km/hMostly Cloudy
9:19 PM26 °C23 °C83 %1011.2 hPa16.1 kmEast (90°)18.5 km/h0.51 mmMostly Cloudy
9:54 PM26.1 °C23.9 °C88 %1010.5 hPa16.1 kmEast (90°)22.2 km/h33.3 km/h0.51 mmMostly Cloudy
10:05 PM27 °C24 °C84 %1011.2 hPa16.1 kmEast (100°)24.1 km/hMostly Cloudy
10:54 PM26.1 °C24.4 °C90 %1010.8 hPa16.1 kmEast (90°)16.7 km/hOvercast
11:54 PM26.1 °C23.3 °C84 %1010.5 hPa16.1 kmEast (90°)16.7 km/hPartly Cloudy
Hourly data recorded from PGUM, located 0 kilometers away from Agat, Guam







STORIES FROM OUR PARTNERS